Home   Weather   Cambridge   Past weeks
Flag for Canada

Past Weather in Cambridge, Ontario, Canada — Yesterday and Last 2 Weeks

Now
75 °F

Thundershowers. Broken clouds.


Feels Like: 75 °F
Forecast: 77 / 51 °F
Wind: 8 mph from Southwest

Location: Waterloo Well

Current Time: May 25, 2019 at 3:23:59 pm

Latest Report: May 25, 2019 at 3:00 pm


Visibility: 8 mi

Pressure: 29.84 "Hg

Humidity: 83%

Dew Point: 70 °F

Location of CambridgeLocation

Past Weather in Cambridge — Graph

°F

Cambridge Temperature Yesterday

Maximum temperature yesterday: 64 °F (at 3:00 pm)
Minimum temperature yesterday: 48 °F (at 6:00 am)
Average temperature yesterday: 57 °F

High & Low Weather Summary for the Past Weeks

 TemperatureHumidityPressure
High82 °F (May 19, 1:00 pm)100% (May 12, 11:22 pm)30.23 "Hg (May 12, 11:22 pm)
Low34 °F (May 11, 4:00 am)34% (May 21, 4:00 pm)29.66 "Hg (May 20, 2:52 am)
Average52 °F78%29.93 "Hg
* Reported May 10 2:00 pm — May 25 2:22 pm, Cambridge. Weather by CustomWeather, © 2019

Note: Actual official high and low records may vary slightly from our data, if they occured in-between our weather recording intervals... More about our weather records

Advertising

Cambridge Weather History for the Previous 24 Hours

Scroll right to see more
 ConditionsComfort  
Time TempWeatherWind HumidityBarometerVisibility
2:22 pm
Sat, May 25
72 °FThunderstorms. Mostly cloudy.8 mph83%29.87 "Hg3 mi
2:14 pm70 °FStrong thunderstorms. Fog.8 mph94%29.87 "Hg2 mi
2:09 pm72 °FStrong thunderstorms. Broken clouds.13 mph83%29.88 "Hg8 mi
1:00 pm73 °FSunny.15 mph74%29.88 "Hg9 mi
12:00 pm66 °FCloudy.9 mph88%29.94 "Hg9 mi
11:44 am64 °FPartly sunny.3 mph88%29.94 "Hg9 mi
11:36 am63 °FThundershowers. Partly sunny.5 mph94%29.94 "Hg9 mi
11:04 am63 °FThundershowers. Partly sunny.13 mph88%29.93 "Hg9 mi
10:29 am59 °FPartly sunny.8 mph94%29.96 "Hg9 mi
10:07 am57 °FLight rain. Fog.7 mph94%29.98 "Hg6 mi
9:26 am55 °FLight rain. Fog.7 mph94%29.99 "Hg3 mi
9:17 am55 °FFog.8 mph94%30.00 "Hg3 mi
8:46 am54 °FFog.8 mph100%30.02 "Hg2 mi
8:34 am54 °FThundershowers. Fog.7 mph100%30.02 "Hg2 mi
8:00 am54 °FFog.5 mph94%30.05 "Hg1 mi
7:55 am54 °FFog.5 mph94%30.04 "Hg1 mi
7:36 am54 °FThunderstorms. Fog.2 mph94%30.05 "Hg1 mi
7:07 am54 °FFog.No wind94%30.06 "Hg1 mi
6:39 am54 °FStrong thunderstorms. Fog.3 mph94%30.05 "Hg2 mi
6:16 am55 °FThundershowers. Mostly cloudy.2 mph88%30.06 "Hg9 mi
6:00 am54 °FCloudy.6 mph94%30.04 "Hg9 mi
5:00 am54 °FFog.6 mph94%30.03 "Hg6 mi
4:56 am54 °FFog.7 mph94%30.03 "Hg6 mi
4:22 am54 °FFog.6 mph94%30.05 "Hg3 mi
3:00 am50 °FFog.2 mph100%30.06 "Hg4 mi
2:23 am50 °FFog.7 mph94%30.06 "Hg2 mi
2:00 am50 °FFog.5 mph94%30.08 "Hg5 mi
1:44 am50 °FFog.2 mph94%30.10 "Hg5 mi
1:01 am52 °FFog.2 mph94%30.12 "Hg6 mi
12:00 am52 °FClear.2 mph94%30.11 "Hg9 mi
11:00 pm
Fri, May 24
55 °FClear.No wind88%30.12 "Hg9 mi
10:00 pm55 °FMostly cloudy.No wind88%30.13 "Hg9 mi
9:27 pm59 °FPassing clouds.3 mph77%30.13 "Hg9 mi
9:00 pm61 °FLight rain. Overcast.5 mph72%30.12 "Hg9 mi
8:49 pm61 °FLight rain. Mostly cloudy.2 mph72%30.11 "Hg9 mi
8:00 pm63 °FMostly cloudy.3 mph68%30.09 "Hg9 mi
7:00 pm64 °FOvercast.No wind68%30.11 "Hg9 mi
6:00 pm64 °FPartly sunny.2 mph68%30.13 "Hg9 mi
5:00 pm64 °FPartly sunny.6 mph64%30.14 "Hg9 mi
4:00 pm64 °FPartly sunny.7 mph64%30.15 "Hg9 mi
3:00 pm64 °FPartly sunny.3 mph64%30.14 "Hg9 mi
Weather by CustomWeather, © 2019

See weather overview